Time,TemperatureF,DewpointF,PressureIn,WindDirection,WindDirectionDegrees,WindSpeedMPH,WindSpeedGustMPH,Humidity,HourlyPrecipIn,Conditions,Clouds,dailyrainin,SoftwareType,DateUTC
2013-10-22 00:14:00,48.0,45.0,29.89,SSW,203,0.0,-999.0,90,-99.99,,,-99.99,,2013-10-22 04:14:00,
2013-10-22 00:25:00,48.0,45.0,29.89,SSW,203,0.0,-999.0,90,-99.99,,,-99.99,,2013-10-22 04:25:00,
2013-10-22 00:43:00,48.0,45.0,29.88,SSW,202,0.0,-999.0,90,-99.99,,,-99.99,,2013-10-22 04:43:00,
2013-10-22 00:54:00,47.0,45.0,29.88,SSW,202,0.0,-999.0,91,-99.99,,,-99.99,,2013-10-22 04:54:00,
2013-10-22 01:13:00,47.0,45.0,29.88,SSW,202,0.0,-999.0,91,-99.99,,,-99.99,,2013-10-22 05:13:00,
2013-10-22 01:23:00,46.0,44.0,29.88,SSW,202,0.0,-999.0,92,-99.99,,,-99.99,,2013-10-22 05:23:00,
2013-10-22 01:52:00,46.0,44.0,29.87,SSW,202,0.0,-999.0,93,-99.99,,,-99.99,,2013-10-22 05:52:00,
2013-10-22 02:12:00,46.0,44.0,29.87,SSW,202,0.0,-999.0,94,-99.99,,,-99.99,,2013-10-22 06:12:00,
2013-10-22 02:22:00,46.0,44.0,29.85,SSW,202,0.0,-999.0,94,-99.99,,,-99.99,,2013-10-22 06:22:00,
2013-10-22 02:43:00,46.0,44.0,29.85,SSW,202,0.0,-999.0,94,-99.99,,,-99.99,,2013-10-22 06:43:00,
2013-10-22 02:53:00,45.0,43.0,29.84,SSW,202,0.0,-999.0,94,-99.99,,,-99.99,,2013-10-22 06:53:00,
2013-10-22 03:12:00,45.0,43.0,29.83,SSW,202,0.0,-999.0,94,-99.99,,,-99.99,,2013-10-22 07:12:00,
2013-10-22 03:23:00,45.0,43.0,29.83,SSW,202,0.0,-999.0,94,-99.99,,,-99.99,,2013-10-22 07:23:00,
2013-10-22 03:42:00,45.0,43.0,29.83,SSW,202,0.0,-999.0,94,-99.99,,,-99.99,,2013-10-22 07:42:00,
2013-10-22 03:52:00,45.0,44.0,29.83,SSW,202,0.0,-999.0,95,-99.99,,,-99.99,,2013-10-22 07:52:00,
2013-10-22 04:12:00,45.0,44.0,29.82,SSW,202,0.0,-999.0,95,-99.99,,,-99.99,,2013-10-22 08:12:00,
2013-10-22 04:22:00,45.0,44.0,29.81,SSW,202,0.0,-999.0,95,-99.99,,,-99.99,,2013-10-22 08:22:00,
2013-10-22 04:42:00,45.0,44.0,29.81,SSW,202,0.0,-999.0,95,-99.99,,,-99.99,,2013-10-22 08:42:00,
2013-10-22 04:52:00,45.0,44.0,29.80,SSW,202,0.0,-999.0,96,-99.99,,,-99.99,,2013-10-22 08:52:00,
2013-10-22 05:11:00,45.0,44.0,29.80,SSW,202,0.0,-999.0,95,-99.99,,,-99.99,,2013-10-22 09:11:00,
2013-10-22 05:22:00,45.0,44.0,29.80,SSW,202,0.0,-999.0,95,-99.99,,,-99.99,,2013-10-22 09:22:00,
2013-10-22 05:53:00,45.0,44.0,29.79,SSW,203,0.0,-999.0,96,-99.99,,,-99.99,,2013-10-22 09:53:00,
2013-10-22 06:13:00,45.0,44.0,29.79,SSW,203,0.0,-999.0,96,-99.99,,,-99.99,,2013-10-22 10:13:00,
2013-10-22 06:23:00,45.0,44.0,29.79,SSW,203,0.0,-999.0,96,-99.99,,,-99.99,,2013-10-22 10:23:00,
2013-10-22 06:43:00,45.0,44.0,29.79,SSW,204,0.0,-999.0,96,-99.99,,,-99.99,,2013-10-22 10:43:00,
2013-10-22 06:53:00,46.0,45.0,29.78,SSW,204,0.0,-999.0,96,-99.99,,,-99.99,,2013-10-22 10:53:00,
2013-10-22 07:12:00,46.0,45.0,29.78,SSW,204,0.0,-999.0,96,-99.99,,,-99.99,,2013-10-22 11:12:00,
2013-10-22 07:22:00,46.0,45.0,29.77,SSW,204,0.0,-999.0,96,-99.99,,,-99.99,,2013-10-22 11:22:00,
2013-10-22 07:42:00,46.0,45.0,29.77,SSW,204,0.0,-999.0,96,-99.99,,,-99.99,,2013-10-22 11:42:00,
2013-10-22 07:52:00,46.0,45.0,29.76,SSW,204,0.0,-999.0,96,-99.99,,,-99.99,,2013-10-22 11:52:00,
2013-10-22 08:11:00,45.0,44.0,29.76,SSW,204,0.0,-999.0,96,-99.99,,,-99.99,,2013-10-22 12:11:00,
2013-10-22 08:22:00,45.0,44.0,29.75,SSW,204,0.0,-999.0,96,-99.99,,,-99.99,,2013-10-22 12:22:00,
2013-10-22 08:42:00,46.0,45.0,29.74,South,173,0.0,-999.0,96,-99.99,,,-99.99,,2013-10-22 12:42:00,
2013-10-22 08:52:00,46.0,45.0,29.74,SW,224,0.0,-999.0,96,-99.99,,,-99.99,,2013-10-22 12:52:00,
2013-10-22 09:12:00,48.0,47.0,29.75,South,188,1.0,-999.0,97,-99.99,,,-99.99,,2013-10-22 13:12:00,
2013-10-22 09:22:00,50.0,49.0,29.76,SSW,198,2.0,-999.0,97,-99.99,,,-99.99,,2013-10-22 13:22:00,
2013-10-22 09:42:00,52.0,51.0,29.75,South,174,2.0,-999.0,97,-99.99,,,-99.99,,2013-10-22 13:42:00,
2013-10-22 09:53:00,53.0,52.0,29.74,SW,228,2.0,-999.0,96,-99.99,,,-99.99,,2013-10-22 13:53:00,
2013-10-22 10:12:00,55.0,53.0,29.74,SSE,153,2.0,-999.0,93,-99.99,,,-99.99,,2013-10-22 14:12:00,
2013-10-22 10:21:00,58.0,54.0,29.74,South,184,2.0,-999.0,86,-99.99,,,-99.99,,2013-10-22 14:21:00,
2013-10-22 10:42:00,61.0,54.0,29.74,SW,228,3.0,-999.0,78,-99.99,,,-99.99,,2013-10-22 14:42:00,
2013-10-22 10:52:00,63.0,53.0,29.74,WSW,254,4.0,-999.0,71,-99.99,,,-99.99,,2013-10-22 14:52:00,
2013-10-22 11:12:00,65.0,54.0,29.73,SSW,213,4.0,-999.0,67,-99.99,,,-99.99,,2013-10-22 15:12:00,
2013-10-22 11:22:00,66.0,53.0,29.73,South,179,3.0,-999.0,63,-99.99,,,-99.99,,2013-10-22 15:22:00,
2013-10-22 11:54:00,67.0,53.0,29.71,SW,221,4.0,-999.0,60,-99.99,,,-99.99,,2013-10-22 15:54:00,
2013-10-22 12:13:00,69.0,55.0,29.71,SW,222,3.0,-999.0,60,-99.99,,,-99.99,,2013-10-22 16:13:00,
2013-10-22 12:23:00,69.0,53.0,29.71,NW,307,3.0,-999.0,57,-99.99,,,-99.99,,2013-10-22 16:23:00,
2013-10-22 12:43:00,69.0,53.0,29.70,SW,216,3.0,-999.0,56,-99.99,,,-99.99,,2013-10-22 16:43:00,
2013-10-22 12:53:00,70.0,52.0,29.69,SW,226,2.0,-999.0,53,-99.99,,,-99.99,,2013-10-22 16:53:00,
2013-10-22 13:12:00,71.0,52.0,29.68,NW,314,2.0,-999.0,52,-99.99,,,-99.99,,2013-10-22 17:12:00,
2013-10-22 13:22:00,70.0,50.0,29.68,SSW,192,2.0,-999.0,49,-99.99,,,-99.99,,2013-10-22 17:22:00,
2013-10-22 13:43:00,71.0,51.0,29.67,NNW,333,3.0,-999.0,50,-99.99,,,-99.99,,2013-10-22 17:43:00,
2013-10-22 13:53:00,70.0,51.0,29.67,North,360,2.0,-999.0,51,-99.99,,,-99.99,,2013-10-22 17:53:00,
2013-10-22 14:12:00,69.0,50.0,29.67,SSW,209,3.0,-999.0,51,-99.99,,,-99.99,,2013-10-22 18:12:00,
2013-10-22 14:22:00,69.0,51.0,29.68,NW,306,2.0,-999.0,53,-99.99,,,-99.99,,2013-10-22 18:22:00,
2013-10-22 14:42:00,68.0,52.0,29.68,NW,313,2.0,-999.0,57,-99.99,,,-99.99,,2013-10-22 18:42:00,
2013-10-22 14:52:00,67.0,51.0,29.67,SW,225,2.0,-999.0,56,-99.99,,,-99.99,,2013-10-22 18:52:00,
2013-10-22 15:02:00,67.0,51.0,29.67,SW,225,2.0,-999.0,56,-99.99,,,-99.99,,2013-10-22 19:02:00,
2013-10-22 15:12:00,67.0,51.0,29.67,SW,225,2.0,-999.0,56,-99.99,,,-99.99,,2013-10-22 19:12:00,
2013-10-22 15:22:00,66.0,50.0,29.67,North,351,1.0,-999.0,57,-99.99,,,-99.99,,2013-10-22 19:22:00,
2013-10-22 15:43:00,66.0,50.0,29.67,SW,235,1.0,-999.0,57,-99.99,,,-99.99,,2013-10-22 19:43:00,
2013-10-22 15:53:00,66.0,50.0,29.67,NNW,329,1.0,-999.0,57,-99.99,,,-99.99,,2013-10-22 19:53:00,
2013-10-22 16:11:00,66.0,50.0,29.66,SSW,205,1.0,-999.0,57,-99.99,,,-99.99,,2013-10-22 20:11:00,
2013-10-22 16:22:00,66.0,51.0,29.66,SW,222,2.0,-999.0,59,-99.99,,,-99.99,,2013-10-22 20:22:00,
2013-10-22 16:43:00,66.0,50.0,29.67,NW,323,3.0,-999.0,57,-99.99,,,-99.99,,2013-10-22 20:43:00,
2013-10-22 16:52:00,65.0,50.0,29.67,NW,322,2.0,-999.0,59,-99.99,,,-99.99,,2013-10-22 20:52:00,
2013-10-22 17:12:00,64.0,51.0,29.67,NE,54,1.0,-999.0,62,-99.99,,,-99.99,,2013-10-22 21:12:00,
2013-10-22 17:23:00,63.0,51.0,29.67,NNE,17,1.0,-999.0,64,-99.99,,,-99.99,,2013-10-22 21:23:00,
2013-10-22 17:34:00,63.0,51.0,29.67,NNE,17,1.0,-999.0,64,-99.99,,,-99.99,,2013-10-22 21:34:00,
2013-10-22 17:44:00,63.0,51.0,29.67,NNE,17,1.0,-999.0,64,-99.99,,,-99.99,,2013-10-22 21:44:00,
2013-10-22 17:54:00,61.0,50.0,29.67,NE,34,0.0,-999.0,66,-99.99,,,-99.99,,2013-10-22 21:54:00,
2013-10-22 18:14:00,60.0,49.0,29.67,WNW,286,0.0,-999.0,66,-99.99,,,-99.99,,2013-10-22 22:14:00,
2013-10-22 18:24:00,60.0,49.0,29.68,NW,315,0.0,-999.0,68,-99.99,,,-99.99,,2013-10-22 22:24:00,
2013-10-22 18:44:00,59.0,48.0,29.68,WSW,256,0.0,-999.0,68,-99.99,,,-99.99,,2013-10-22 22:44:00,
2013-10-22 18:54:00,58.0,49.0,29.69,WSW,256,0.0,-999.0,71,-99.99,,,-99.99,,2013-10-22 22:54:00,
2013-10-22 19:12:00,57.0,48.0,29.69,WSW,256,0.0,-999.0,73,-99.99,,,-99.99,,2013-10-22 23:12:00,
2013-10-22 19:23:00,56.0,48.0,29.69,WSW,256,0.0,-999.0,75,-99.99,,,-99.99,,2013-10-22 23:23:00,
2013-10-22 19:43:00,55.0,48.0,29.69,WSW,256,0.0,-999.0,76,-99.99,,,-99.99,,2013-10-22 23:43:00,
2013-10-22 19:53:00,54.0,47.0,29.70,WSW,256,0.0,-999.0,78,-99.99,,,-99.99,,2013-10-22 23:53:00,
2013-10-22 20:11:00,53.0,47.0,29.70,WSW,256,0.0,-999.0,79,-99.99,,,-99.99,,2013-10-23 00:11:00,
2013-10-22 20:22:00,53.0,47.0,29.70,West,276,0.0,-999.0,81,-99.99,,,-99.99,,2013-10-23 00:22:00,
2013-10-22 20:42:00,52.0,47.0,29.70,West,276,0.0,-999.0,82,-99.99,,,-99.99,,2013-10-23 00:42:00,
2013-10-22 20:52:00,52.0,47.0,29.70,West,276,0.0,-999.0,83,-99.99,,,-99.99,,2013-10-23 00:52:00,
2013-10-22 21:11:00,51.0,46.0,29.70,West,276,0.0,-999.0,84,-99.99,,,-99.99,,2013-10-23 01:11:00,
2013-10-22 21:23:00,50.0,46.0,29.70,West,276,0.0,-999.0,85,-99.99,,,-99.99,,2013-10-23 01:23:00,
2013-10-22 21:42:00,50.0,46.0,29.71,West,276,0.0,-999.0,86,-99.99,,,-99.99,,2013-10-23 01:42:00,
2013-10-22 21:52:00,50.0,46.0,29.72,SSW,213,0.0,-999.0,86,-99.99,,,-99.99,,2013-10-23 01:52:00,
2013-10-22 22:12:00,49.0,45.0,29.72,WSW,257,0.0,-999.0,86,-99.99,,,-99.99,,2013-10-23 02:12:00,
2013-10-22 22:22:00,49.0,45.0,29.72,WSW,257,0.0,-999.0,85,-99.99,,,-99.99,,2013-10-23 02:22:00,
2013-10-22 22:42:00,49.0,45.0,29.72,WSW,257,0.0,-999.0,85,-99.99,,,-99.99,,2013-10-23 02:42:00,
2013-10-22 22:54:00,48.0,44.0,29.72,WSW,257,0.0,-999.0,86,-99.99,,,-99.99,,2013-10-23 02:54:00,
2013-10-22 23:12:00,47.0,43.0,29.72,WSW,257,0.0,-999.0,87,-99.99,,,-99.99,,2013-10-23 03:12:00,
2013-10-22 23:22:00,46.0,43.0,29.72,WSW,257,0.0,-999.0,88,-99.99,,,-99.99,,2013-10-23 03:22:00,
2013-10-22 23:44:00,45.0,42.0,29.71,WSW,257,0.0,-999.0,89,-99.99,,,-99.99,,2013-10-23 03:44:00,
2013-10-22 23:55:00,45.0,42.0,29.71,WSW,257,0.0,-999.0,90,-99.99,,,-99.99,,2013-10-23 03:55:00,